Location: Acts Church of Fort Worth
(32.6786°N, 97.2668°W)
Time: 22:22:31
(UTC+00:00)

Radarsat Rocket - Pass Details

Date: 18 January 2026
Orbit: 933 x 1491 km, 100.5° (Epoch: 13 February)

Event Time Altitude Azimuth Distance (km) Brightness Sun altitude
Rises 01:33:28 0° 171° (S) 3,957 7.2 -22.0°
Reaches altitude 10° 01:36:09 10° 174° (S) 2,926 6.5 -22.5°
Maximum altitude 01:42:36 66° 256° (WSW) 1,088 4.4 -23.9°
Drops below altitude 10° 01:48:31 10° 338° (NNW) 2,685 6.4 -25.1°
Sets 01:50:54 0° 342° (NNW) 3,609 7.1 -25.6°
